Location: Fond Mahaut
(18.0707°N, 63.0465°W)
Time: 05:04:12
(UTC+00:00)

Delta 128 - Pass Details

Date: 08 December 2019
Orbit: 608 x 1216 km, 28.0° (Epoch: 23 January)

Event Time Altitude Azimuth Distance (km) Brightness Sun altitude
Rises 23:13:08 0° 249° (WSW) 2,999 8.6 -22.3°
Reaches altitude 10° 23:15:36 10° 250° (WSW) 2,029 7.3 -22.9°
Maximum altitude 23:20:14 81° 337° (NNW) 621 3.4 -23.9°
Enters shadow 23:20:19 80° 356° (N) 621 3.4 -24.0°
